{"data":{"norad_id":62880,"intl_designator":"2025-024B","name":"STARLINK-11352 [DTC]","alt_names":[],"object_type":"PAYLOAD","status":"ACTIVE","operator":null,"country":"US","launch_date":"2025-02-04","launch_site_code":"AFETR","launch_vehicle":null,"mission":null,"orbit_class":"UNKNOWN","rcs_meters":null,"size_class":null,"mass_kg":null,"dimensions":null,"purposes":["comms"],"wikipedia_slug":null,"has_3d_model":false,"image_url":null,"decayed_at":null,"tle_current":{"epoch":"2026-09-21T19:24:32.262336Z","epoch_age_seconds":55114,"freshness":"FRESH","line1":"1 62880U 25024B   26264.80870674  .00131327  00000+0  10099-2 0  9994","line2":"2 62880  43.0009  79.0882 0003223 293.5270  66.5259 15.70859362 94310","mean_motion":15.70859362,"eccentricity":0.0003223,"inclination_deg":43.0009,"raan_deg":79.0882,"arg_perigee_deg":293.527,"mean_anomaly_deg":66.5259,"bstar":0.0010099,"rev_number":9431,"period_min":91.669568570837,"perigee_km":354.26916783985,"apogee_km":358.6102759948,"semimajor_km":6734.5767219173,"source":"CELESTRAK","updated_at":"2026-09-22T09:00:49.701819Z"}}}